FW8891 Weather Reports


Display with metric or nautical units.
time (UTC)temp
F
wind
direction
speed
MPH
gust
MPH
rain 1hr
in
rain 24hr
in
rain mn
in
humidity
%
barometer
mb
20260905113102 80 0 0.0 1.0 0.00 0.00 0.00 50 1012.8
20260905112600 81 0 0.0 1.0 0.00 0.00 0.00 50 1012.8
20260905112059 80 309 0.0 1.0 0.00 0.00 0.00 50 1012.7
20260905111655 81 0 0.0 0.0 0.00 0.00 0.00 50 1012.6
20260905111100 81 0 0.0 1.0 0.00 0.00 0.00 49 1012.7
20260905110559 81 0 0.0 1.0 0.00 0.00 0.00 49 1012.8
20260905105559 82 0 0.0 1.0 0.00 0.00 0.00 49 1012.7
20260905105101 82 0 0.0 2.0 0.00 0.00 0.00 48 1012.6
20260905104600 82 0 0.0 2.0 0.00 0.00 0.00 48 1012.5
20260905104100 82 0 0.0 2.0 0.00 0.00 0.00 47 1012.6
20260905103600 83 56 0.0 2.0 0.00 0.00 0.00 47 1012.5
20260905103109 83 0 0.0 2.0 0.00 0.00 0.00 46 1012.5
20260905102559 84 322 1.0 2.0 0.00 0.00 0.00 46 1012.5
20260905102059 84 298 1.0 2.0 0.00 0.00 0.00 46 1012.4
20260905101609 84 287 0.0 3.0 0.00 0.00 0.00 46 1012.4
20260905101059 84 329 1.0 5.0 0.00 0.00 0.00 46 1012.4
20260905100559 84 326 2.0 5.0 0.00 0.00 0.00 45 1012.4
20260905095559 84 318 2.0 5.0 0.00 0.00 0.00 45 1012.4
20260905095059 84 321 2.0 4.0 0.00 0.00 0.00 45 1012.3
20260905094605 84 342 2.0 4.0 0.00 0.00 0.00 45 1012.3
20260905094059 84 343 2.0 3.0 0.00 0.00 0.00 45 1012.4
20260905093600 84 315 1.0 3.0 0.00 0.00 0.00 45 1012.4
20260905093122 84 324 0.0 2.0 0.00 0.00 0.00 45 1012.5
20260905092559 84 325 0.0 2.0 0.00 0.00 0.00 45 1012.5
20260905092059 84 322 1.0 4.0 0.00 0.00 0.00 45 1012.5
20260905091604 85 326 1.0 4.0 0.00 0.00 0.00 45 1012.5
20260905091059 85 334 2.0 4.0 0.00 0.00 0.00 44 1012.5
20260905090559 85 322 2.0 5.0 0.00 0.00 0.00 44 1012.5
20260905090104 85 326 3.0 5.0 0.00 0.00 0.00 44 1012.5
20260905085600 85 331 2.0 5.0 0.00 0.00 0.00 44 1012.5
20260905085100 85 338 2.0 5.0 0.00 0.00 0.00 44 1012.6
20260905084605 85 339 2.0 4.0 0.00 0.00 0.00 44 1012.6
20260905084137 85 353 2.0 4.0 0.00 0.00 0.00 44 1012.6
20260905083600 85 321 2.0 5.0 0.00 0.00 0.00 44 1012.7
20260905083102 86 329 2.0 5.0 0.00 0.00 0.00 43 1012.6
20260905082559 86 333 2.0 4.0 0.00 0.00 0.00 43 1012.7
20260905082059 86 340 2.0 3.0 0.00 0.00 0.00 42 1012.7
20260905081603 86 335 1.0 3.0 0.00 0.00 0.00 43 1012.7
20260905081100 85 0 0.0 1.0 0.00 0.00 0.00 43 1012.7
20260905080603 85 0 0.0 2.0 0.00 0.00 0.00 43 1012.7
20260905075600 86 103 0.0 2.0 0.00 0.00 0.00 42 1012.8
20260905075058 87 0 0.0 1.0 0.00 0.00 0.00 41 1012.7
20260905074611 87 289 0.0 1.0 0.00 0.00 0.00 41 1012.7
20260905074100 87 271 0.0 1.0 0.00 0.00 0.00 41 1012.6
20260905073558 88 0 0.0 2.0 0.00 0.00 0.00 41 1012.5
20260905073104 88 266 1.0 6.0 0.00 0.00 0.00 41 1012.5
20260905072559 89 271 2.0 7.0 0.00 0.00 0.00 40 1012.4
20260905072101 89 288 2.0 7.0 0.00 0.00 0.00 39 1012.4
20260905071602 88 254 3.0 6.0 0.00 0.00 0.00 40 1012.4
20260905071057 87 252 1.0 2.0 0.00 0.00 0.00 40 1012.4
20260905070602 87 0 0.0 0.0 0.00 0.00 0.00 41 1012.4
20260905065558 87 0 0.0 0.0 0.00 0.00 0.00 41 1012.5
20260905065057 87 0 0.0 1.0 0.00 0.00 0.00 40 1012.4
20260905064631 88 272 0.0 1.0 0.00 0.00 0.00 40 1012.4
20260905064058 88 0 0.0 2.0 0.00 0.00 0.00 40 1012.4
20260905063558 87 274 1.0 3.0 0.00 0.00 0.00 40 1012.4
20260905063103 87 262 0.0 3.0 0.00 0.00 0.00 40 1012.3
20260905062559 87 236 0.0 3.0 0.00 0.00 0.00 41 1012.2
20260905062058 86 0 0.0 0.0 0.00 0.00 0.00 42 1012.2
20260905061601 86 0 0.0 0.0 0.00 0.00 0.00 42 1012.2
20260905061058 87 0 0.0 0.0 0.00 0.00 0.00 41 1012.2
20260905060601 87 0 0.0 0.0 0.00 0.00 0.00 41 1012.2
20260905060108 87 0 0.0 0.0 0.00 0.00 0.00 40 1012.1
20260905055603 88 0 0.0 0.0 0.00 0.00 0.00 41 1012.2
20260905055058 88 0 0.0 0.0 0.00 0.00 0.00 40 1012.1
20260905054601 89 0 0.0 0.0 0.00 0.00 0.00 40 1012.1
20260905054057 89 0 0.0 0.0 0.00 0.00 0.00 39 1012.1
20260905053558 89 0 0.0 3.0 0.00 0.00 0.00 39 1012.0
20260905053104 90 0 0.0 3.0 0.00 0.00 0.00 38 1012.0
20260905052558 90 215 1.0 3.0 0.00 0.00 0.00 38 1012.0
20260905052059 90 226 1.0 2.0 0.00 0.00 0.00 38 1011.9
20260905051601 90 258 1.0 2.0 0.00 0.00 0.00 38 1011.9
20260905051058 90 213 0.0 1.0 0.00 0.00 0.00 37 1011.9
20260905050558 90 205 0.0 3.0 0.00 0.00 0.00 37 1011.9
20260905050105 91 225 1.0 3.0 0.00 0.00 0.00 37 1011.9
20260905045558 91 162 1.0 2.0 0.00 0.00 0.00 36 1011.9
20260905045058 91 210 0.0 3.0 0.00 0.00 0.00 36 1011.8
20260905044611 91 187 1.0 3.0 0.00 0.00 0.00 36 1011.8
20260905044100 91 184 1.0 3.0 0.00 0.00 0.00 36 1011.8
20260905043605 91 231 1.0 5.0 0.00 0.00 0.00 35 1011.7
20260905043108 92 234 2.0 5.0 0.00 0.00 0.00 35 1011.7
20260905042603 92 194 1.0 5.0 0.00 0.00 0.00 35 1011.7
20260905042101 92 211 2.0 5.0 0.00 0.00 0.00 34 1011.6
20260905041603 92 176 2.0 5.0 0.00 0.00 0.00 34 1011.6
20260905041059 93 230 2.0 5.0 0.00 0.00 0.00 34 1011.6
20260905040559 93 203 2.0 5.0 0.00 0.00 0.00 34 1011.6
20260905040105 93 193 2.0 4.0 0.00 0.00 0.00 34 1011.4
20260905035559 93 219 2.0 4.0 0.00 0.00 0.00 34 1011.5
20260905035058 93 264 2.0 5.0 0.00 0.00 0.00 34 1011.4
20260905034609 93 254 2.0 5.0 0.00 0.00 0.00 33 1011.4
20260905034101 94 177 2.0 6.0 0.00 0.00 0.00 33 1011.3
20260905033559 94 273 3.0 6.0 0.00 0.00 0.00 33 1011.3
20260905033101 94 143 3.0 7.0 0.00 0.00 0.00 32 1011.3
20260905032559 94 186 3.0 7.0 0.00 0.00 0.00 32 1011.3
20260905032059 94 182 3.0 8.0 0.00 0.00 0.00 32 1011.1
20260905031605 94 185 3.0 9.0 0.00 0.00 0.00 32 1011.1
20260905031058 95 259 3.0 9.0 0.00 0.00 0.00 32 1010.9
20260905030559 95 184 4.0 7.0 0.00 0.00 0.00 32 1010.9
20260905030118 95 196 3.0 7.0 0.00 0.00 0.00 33 1010.7
20260905025558 95 220 4.0 8.0 0.00 0.00 0.00 32 1010.7
20260905025058 95 153 4.0 8.0 0.00 0.00 0.00 32 1010.6
20260905024605 95 156 4.0 8.0 0.00 0.00 0.00 33 1010.6
20260905024058 96 187 4.0 10.0 0.00 0.00 0.00 33 1010.3
20260905023602 96 191 5.0 10.0 0.00 0.00 0.00 33 1010.4
20260905023104 96 200 5.0 9.0 0.00 0.00 0.00 33 1010.3
20260905022601 96 236 5.0 9.0 0.00 0.00 0.00 33 1010.3
20260905022059 96 216 4.0 9.0 0.00 0.00 0.00 33 1010.2
20260905021613 96 203 3.0 9.0 0.00 0.00 0.00 33 1010.2
20260905021059 96 236 4.0 9.0 0.00 0.00 0.00 32 1010.2
20260905020559 97 128 4.0 9.0 0.00 0.00 0.00 32 1010.1
20260905020108 97 240 4.0 8.0 0.00 0.00 0.00 32 1010.0
20260905015559 97 156 4.0 10.0 0.00 0.00 0.00 32 1010.0
20260905015059 97 172 3.0 10.0 0.00 0.00 0.00 32 1010.0
20260905014603 97 269 4.0 11.0 0.00 0.00 0.00 31 1010.0
20260905014059 98 172 6.0 11.0 0.00 0.00 0.00 31 1010.0
20260905013600 98 252 6.0 11.0 0.00 0.00 0.00 31 1010.0
20260905013105 98 253 5.0 11.0 0.00 0.00 0.00 31 1009.9
20260905012602 99 167 4.0 9.0 0.00 0.00 0.00 30 1009.9
20260905012103 99 215 2.0 6.0 0.00 0.00 0.00 30 1009.9
20260905011608 99 266 3.0 7.0 0.00 0.00 0.00 30 1009.8
20260905011058 98 147 4.0 11.0 0.00 0.00 0.00 30 1009.8
20260905010601 99 200 5.0 11.0 0.00 0.00 0.00 30 1009.8
20260905010103 99 188 4.0 12.0 0.00 0.00 0.00 30 1009.8
20260905005558 99 208 6.0 14.0 0.00 0.00 0.00 30 1009.8
20260905005059 99 185 6.0 14.0 0.00 0.00 0.00 30 1009.8
20260905004608 100 186 5.0 12.0 0.00 0.00 0.00 30 1009.9
20260905004101 100 127 5.0 12.0 0.00 0.00 0.00 29 1009.8
20260905003559 100 244 5.0 9.0 0.00 0.00 0.00 31 1009.8
20260905003108 100 256 4.0 10.0 0.00 0.00 0.00 30 1009.9
20260905002558 99 229 5.0 13.0 0.00 0.00 0.00 30 1009.9
20260905002059 100 226 5.0 13.0 0.00 0.00 0.00 30 1009.9
20260905001611 101 295 6.0 12.0 0.00 0.00 0.00 30 1009.9
20260905001058 100 224 5.0 11.0 0.00 0.00 0.00 31 1009.9
20260905000558 100 276 5.0 12.0 0.00 0.00 0.00 31 1010.0
20260905000107 100 197 5.0 12.0 0.00 0.00 0.00 31 1010.0
20260904235558 100 143 6.0 10.0 0.00 0.00 0.00 30 1010.0
20260904235102 100 212 4.0 8.0 0.00 0.00 0.00 30 1010.0
20260904234608 100 205 4.0 13.0 0.00 0.00 0.00 29 1010.0
20260904234058 100 217 7.0 13.0 0.00 0.00 0.00 29 1010.1
20260904233558 100 196 6.0 13.0 0.00 0.00 0.00 29 1010.1
20260904233103 101 245 6.0 10.0 0.00 0.00 0.00 29 1010.0
20260904232601 100 323 5.0 10.0 0.00 0.00 0.00 29 1010.2
20260904232100 101 221 5.0 10.0 0.00 0.00 0.00 29 1010.1
20260904231604 102 278 5.0 10.0 0.00 0.00 0.00 29 1010.1
20260904231101 102 289 5.0 10.0 0.00 0.00 0.00 28 1010.2
20260904230604 102 226 4.0 14.0 0.00 0.00 0.00 29 1010.2
20260904225601 101 167 4.0 8.0 0.00 0.00 0.00 29 1010.4
20260904225058 101 183 3.0 16.0 0.00 0.00 0.00 29 1010.6
20260904224602 101 238 5.0 16.0 0.00 0.00 0.00 29 1010.6
20260904224058 100 205 7.0 16.0 0.00 0.00 0.00 30 1010.6
20260904223559 99 338 1.0 5.0 0.00 0.00 0.00 33 1010.5
20260904223104 99 118 2.0 8.0 0.00 0.00 0.00 34 1010.7
20260904222558 99 133 3.0 11.0 0.00 0.00 0.00 34 1010.8
20260904222058 99 127 5.0 11.0 0.00 0.00 0.00 34 1010.9
20260904221605 99 120 6.0 11.0 0.00 0.00 0.00 33 1010.9
20260904221101 100 106 3.0 9.0 0.00 0.00 0.00 33 1011.0
20260904220600 101 130 5.0 10.0 0.00 0.00 0.00 32 1011.0
20260904220112 101 233 4.0 10.0 0.00 0.00 0.00 32 1011.1
20260904215603 102 136 4.0 10.0 0.00 0.00 0.00 31 1011.2
20260904215104 102 269 6.0 10.0 0.00 0.00 0.00 32 1011.2
20260904214605 102 271 3.0 7.0 0.00 0.00 0.00 33 1011.3
20260904214100 101 243 4.0 9.0 0.00 0.00 0.00 34 1011.3
20260904213600 101 109 2.0 11.0 0.00 0.00 0.00 34 1011.4
20260904213106 101 117 7.0 11.0 0.00 0.00 0.00 33 1011.5
20260904212601 100 108 5.0 14.0 0.00 0.00 0.00 36 1011.5
20260904212059 100 257 6.0 14.0 0.00 0.00 0.00 35 1011.6
20260904211608 100 163 5.0 11.0 0.00 0.00 0.00 35 1011.6
20260904211059 102 143 4.0 11.0 0.00 0.00 0.00 34 1011.8
20260904210600 101 243 5.0 13.0 0.00 0.00 0.00 34 1011.8
20260904210111 101 183 7.0 13.0 0.00 0.00 0.00 34 1011.9
20260904205600 99 129 7.0 13.0 0.00 0.00 0.00 37 1011.8
20260904205100 100 146 4.0 12.0 0.00 0.00 0.00 36 1011.9
20260904204606 100 191 5.0 10.0 0.00 0.00 0.00 36 1012.0
20260904204100 100 169 5.0 11.0 0.00 0.00 0.00 35 1012.0
20260904203600 100 168 5.0 11.0 0.00 0.00 0.00 37 1012.1
20260904203106 101 105 5.0 12.0 0.00 0.00 0.00 36 1012.1
20260904202619 100 236 5.0 12.0 0.00 0.00 0.00 35 1012.2
20260904202058 100 168 4.0 9.0 0.00 0.00 0.00 37 1012.3
20260904201606 100 108 3.0 9.0 0.00 0.00 0.00 38 1012.4
20260904201058 100 94 1.0 14.0 0.00 0.00 0.00 38 1012.5
20260904200601 100 147 4.0 14.0 0.00 0.00 0.00 38 1012.7
20260904200124 100 129 4.0 10.0 0.00 0.00 0.00 38 1012.6
20260904195559 100 215 3.0 10.0 0.00 0.00 0.00 38 1012.7
20260904195104 100 187 6.0 13.0 0.00 0.00 0.00 38 1012.6
20260904194635 99 193 6.0 13.0 0.00 0.00 0.00 38 1012.7
20260904194059 99 143 7.0 13.0 0.00 0.00 0.00 38 1012.7
20260904193558 98 90 2.0 8.0 0.00 0.00 0.00 40 1012.7
20260904193105 97 10 3.0 9.0 0.00 0.00 0.00 40 1012.9
20260904192559 98 144 4.0 9.0 0.00 0.00 0.00 41 1013.0
20260904192101 97 146 3.0 8.0 0.00 0.00 0.00 41 1012.9
20260904191622 98 124 3.0 7.0 0.00 0.00 0.00 41 1013.1
20260904191059 98 127 2.0 15.0 0.00 0.00 0.00 41 1013.2
20260904190559 96 127 7.0 15.0 0.00 0.00 0.00 41 1013.3
20260904190101 97 91 6.0 11.0 0.00 0.00 0.00 40 1013.3
20260904185559 97 96 1.0 8.0 0.00 0.00 0.00 42 1013.3
20260904185059 96 90 4.0 8.0 0.00 0.00 0.00 42 1013.4
20260904184611 96 116 2.0 12.0 0.00 0.00 0.00 43 1013.5
20260904184103 96 174 3.0 13.0 0.00 0.00 0.00 44 1013.6
20260904183559 96 122 6.0 13.0 0.00 0.00 0.00 44 1013.6
20260904183108 97 123 2.0 7.0 0.00 0.00 0.00 43 1013.7
20260904182558 96 192 3.0 10.0 0.00 0.00 0.00 43 1013.7
20260904182058 96 96 4.0 10.0 0.00 0.00 0.00 44 1013.9
20260904181601 95 134 2.0 9.0 0.00 0.00 0.00 46 1013.9
20260904181058 94 114 2.0 9.0 0.00 0.00 0.00 49 1014.1
20260904180559 95 123 4.0 9.0 0.00 0.00 0.00 47 1014.1
20260904175559 94 133 3.0 12.0 0.00 0.00 0.00 47 1014.1
20260904175100 94 102 6.0 12.0 0.00 0.00 0.00 48 1014.2
20260904174605 93 103 2.0 9.0 0.00 0.00 0.00 50 1014.1
20260904174058 94 131 3.0 9.0 0.00 0.00 0.00 50 1014.2
20260904173558 94 112 4.0 9.0 0.00 0.00 0.00 51 1014.2
20260904173111 94 142 3.0 8.0 0.00 0.00 0.00 51 1014.2
20260904172559 93 111 2.0 7.0 0.00 0.00 0.00 50 1014.2
20260904172059 93 141 4.0 6.0 0.00 0.00 0.00 50 1014.2
20260904171601 92 184 2.0 9.0 0.00 0.00 0.00 53 1014.2
20260904171059 92 148 5.0 9.0 0.00 0.00 0.00 52 1014.2
20260904170603 92 143 1.0 8.0 0.00 0.00 0.00 54 1014.2
20260904170059 91 125 2.0 8.0 0.00 0.00 0.00 55 1014.2
20260904165559 92 148 3.0 8.0 0.00 0.00 0.00 54 1014.2
20260904165059 92 132 4.0 7.0 0.00 0.00 0.00 54 1014.1
20260904164603 92 129 2.0 8.0 0.00 0.00 0.00 54 1014.1
20260904164101 91 110 4.0 8.0 0.00 0.00 0.00 54 1014.2
20260904163601 91 100 4.0 7.0 0.00 0.00 0.00 54 1014.1
20260904163105 91 139 3.0 6.0 0.00 0.00 0.00 55 1014.0
20260904162559 91 138 2.0 5.0 0.00 0.00 0.00 56 1013.9
20260904162058 91 131 3.0 5.0 0.00 0.00 0.00 55 1014.0
20260904161601 91 124 3.0 6.0 0.00 0.00 0.00 56 1014.0
20260904161058 91 157 3.0 6.0 0.00 0.00 0.00 55 1014.0
20260904160558 91 165 3.0 5.0 0.00 0.00 0.00 56 1013.9
20260904160103 90 152 3.0 5.0 0.00 0.00 0.00 56 1013.9
20260904155600 90 150 1.0 8.0 0.00 0.00 0.00 56 1013.9
20260904155059 90 136 2.0 8.0 0.00 0.00 0.00 55 1013.9
20260904154620 90 60 1.0 6.0 0.00 0.00 0.00 56 1013.9
20260904154059 90 63 0.0 6.0 0.00 0.00 0.00 57 1013.9
20260904153559 89 129 2.0 6.0 0.00 0.00 0.00 57 1013.9
20260904153102 89 100 3.0 6.0 0.00 0.00 0.00 57 1013.9
20260904152559 89 38 0.0 5.0 0.00 0.00 0.00 58 1013.8
20260904152059 88 122 1.0 5.0 0.00 0.00 0.00 59 1013.8
20260904151610 88 135 2.0 5.0 0.00 0.00 0.00 59 1013.9
20260904151059 88 139 2.0 6.0 0.00 0.00 0.00 59 1013.9
20260904150559 88 122 2.0 6.0 0.00 0.00 0.00 59 1013.8
20260904150101 87 119 3.0 6.0 0.00 0.00 0.00 59 1013.8
20260904145559 87 126 3.0 5.0 0.00 0.00 0.00 60 1013.7
20260904145058 87 108 1.0 5.0 0.00 0.00 0.00 60 1013.7
20260904144604 87 91 2.0 5.0 0.00 0.00 0.00 60 1013.6
20260904144107 87 65 1.0 6.0 0.00 0.00 0.00 60 1013.6
20260904143558 86 78 2.0 6.0 0.00 0.00 0.00 60 1013.6
20260904143101 86 104 1.0 5.0 0.00 0.00 0.00 60 1013.5
20260904142559 86 140 1.0 5.0 0.00 0.00 0.00 60 1013.5
20260904142059 86 95 2.0 5.0 0.00 0.00 0.00 60 1013.3
20260904141623 85 0 2.0 4.0 0.00 0.00 0.00 60 1013.3
20260904141059 85 0 0.0 4.0 0.00 0.00 0.00 60 1013.3
20260904140559 84 68 0.0 3.0 0.00 0.00 0.00 60 1013.2
20260904140109 84 53 0.0 3.0 0.00 0.00 0.00 59 1013.1
20260904135559 83 48 1.0 3.0 0.00 0.00 0.00 58 1012.9
20260904135059 83 47 1.0 2.0 0.00 0.00 0.00 58 1012.9
20260904134621 83 72 0.0 2.0 0.00 0.00 0.00 58 1012.8
20260904134059 83 65 0.0 2.0 0.00 0.00 0.00 58 1012.7
20260904133559 82 0 0.0 1.0 0.00 0.00 0.00 58 1012.6
20260904133117 81 0 0.0 1.0 0.00 0.00 0.00 58 1012.6
20260904132559 81 57 0.0 1.0 0.00 0.00 0.00 59 1012.5
20260904132101 81 0 0.0 2.0 0.00 0.00 0.00 59 1012.6
20260904131614 81 0 0.0 2.0 0.00 0.00 0.00 59 1012.5
20260904131059 80 0 0.0 1.0 0.00 0.00 0.00 59 1012.4
20260904130601 80 0 0.0 2.0 0.00 0.00 0.00 59 1012.3
20260904125602 80 64 1.0 3.0 0.00 0.00 0.00 59 1012.3
20260904125059 80 60 1.0 2.0 0.00 0.00 0.00 59 1012.1
20260904124600 80 0 0.0 0.0 0.00 0.00 0.00 60 1012.1
20260904124058 80 0 0.0 0.0 0.00 0.00 0.00 60 1012.1
20260904123600 80 0 0.0 0.0 0.00 0.00 0.00 60 1012.0
20260904123121 80 0 0.0 0.0 0.00 0.00 0.00 60 1012.0
20260904122559 80 0 0.0 0.0 0.00 0.00 0.00 60 1011.9
20260904122101 81 0 0.0 0.0 0.00 0.00 0.00 59 1012.0
20260904121601 81 0 0.0 0.0 0.00 0.00 0.00 59 1011.9
20260904121058 81 0 0.0 1.0 0.00 0.00 0.00 59 1011.9
20260904120558 81 0 0.0 1.0 0.00 0.00 0.00 58 1011.9
20260904120104 81 0 0.0 2.0 0.00 0.00 0.00 58 1011.9
20260904115559 81 328 0.0 2.0 0.00 0.00 0.00 58 1011.9
20260904115103 81 60 1.0 2.0 0.00 0.00 0.00 58 1011.9
20260904114602 81 0 0.0 1.0 0.00 0.00 0.00 58 1011.9
20260904114100 81 63 0.0 1.0 0.00 0.00 0.00 58 1011.8
20260904113603 81 322 0.0 1.0 0.00 0.00 0.00 58 1011.7